Location: Beetenbrück
(52.8113°N, 9.5946°E)
Time: 16:55:29
(UTC+00:00)

BREEZE-M DEB (TANK) - Pass Details

Date: 14 April 2026
Orbit: 347 x 16119 km, 49.4° (Epoch: 6 May)

Event Time Altitude Azimuth Distance (km) Brightness Sun altitude
Rises 21:09:58 0° 274° (W) 2,354 6.1 -21.5°
Reaches altitude 10° 21:11:26 10° 264° (W) 1,708 5.2 -21.6°
Maximum altitude 21:14:36 40° 192° (SSW) 1,159 3.6 -21.9°
Enters shadow 21:14:47 40° 186° (S) 1,190 3.6 -21.9°
